Regional Weather Roundup
Issued by NWS

Home | Current Version | Previous Version | Graphics & Text | Print | Product List | Glossary On
Versions: 1 2 3 4 5 6 7 8 9 10 11 12 13 14 15 16 17 18 19 20 21 22 23 24 25 26 27 28 29 30 31 32 33 34 35 36 37 38 39 40 41 42 43 44 45 46 47 48 49 50
000
ASUS43 KBIS 301410
RWRND

NORTH DAKOTA REGIONAL WEATHER ROUNDUP
NATIONAL WEATHER SERVICE BISMARCK ND
900 AM CDT THU OCT 30 2014

NOTE: "FAIR" INDICATES FEW OR NO CLOUDS BELOW 12,000 FEET WITH NO
SIGNIFICANT WEATHER AND/OR OBSTRUCTIONS TO VISIBILITY.


NDZ001>003-009>011-017-301500-
NORTHWEST NORTH DAKOTA

CITY           SKY/WX    TMP DP  RH WIND       PRES   REMARKS
WILLISTON      CLOUDY    36  31  82 N9        30.32R
MINOT          CLOUDY    32  29  88 N13       30.30R
MINOT AFB      CLOUDY    33  32  99 N10       30.30R
$$

NDZ018>021-031>035-040>046-301500-
SOUTHWEST NORTH DAKOTA

CITY           SKY/WX    TMP DP  RH WIND       PRES   REMARKS
BISMARCK       CLEAR     32  29  88 NW7       30.27R
DICKINSON      CLOUDY    35  32  88 N9        30.27R FOG
GARRISON         N/A     33  30  88 N7        30.29R
HETTINGER ARPT CLOUDY    34  32  92 N10       30.27R FOG
$$

NDZ004>008-012>016-024-026-027-054-301500-
NORTHEAST NORTH DAKOTA

CITY           SKY/WX    TMP DP  RH WIND       PRES   REMARKS
GRAND FORKS    CLOUDY    33  30  88 N13       30.20R
GRND FRKS AFB  CLOUDY    34  32  94 N12       30.21R
DEVILS LAKE    CLOUDY    34  23  64 N17       30.22R
$$

NDZ022-023-025-028>030-036>039-047>053-301500-
SOUTHEAST NORTH DAKOTA

CITY           SKY/WX    TMP DP  RH WIND       PRES   REMARKS
FARGO          CLOUDY    40  37  89 N13       30.14R
JAMESTOWN      CLEAR     32  30  92 N10       30.19R
$$




USA.gov is the U.S. government's official web portal to all federal, state and local government web resources and services.